| time (UTC) | temp C | wind direction | speed KPH | gust KPH | rain 1hr cm | rain 24hr cm | rain mn cm | humidity % | barometer mb |
| 20260505011913 | 13 | 229 | 4.8 | 6.4 | 0.00 | 0.00 | 0.00 | 58 | 1011.2 |
| 20260505011410 | 13 | 223 | 4.8 | 6.4 | 0.00 | 0.00 | 0.00 | 58 | 1010.9 |
| 20260505010906 | 13 | 238 | 4.8 | 6.4 | 0.00 | 0.00 | 0.00 | 58 | 1011.1 |
| 20260505010402 | 14 | 230 | 6.4 | 9.7 | 0.00 | 0.00 | 0.00 | 57 | 1011.0 |
| 20260505005858 | 13 | 270 | 6.4 | 9.7 | 0.00 | 0.00 | 0.00 | 57 | 1011.1 |
| 20260505005355 | 13 | 196 | 3.2 | 3.2 | 0.00 | 0.00 | 0.00 | 60 | 1010.7 |
| 20260505004853 | 13 | 165 | 0.0 | 3.2 | 0.00 | 0.00 | 0.00 | 63 | 1010.7 |
| 20260505004349 | 12 | 162 | 0.0 | 0.0 | 0.00 | 0.00 | 0.00 | 63 | 1010.4 |
| 20260505003846 | 12 | 157 | 0.0 | 0.0 | 0.00 | 0.00 | 0.00 | 65 | 1010.5 |
| 20260505003344 | 12 | 136 | 0.0 | 0.0 | 0.00 | 0.00 | 0.00 | 63 | 1010.3 |
| 20260505002839 | 13 | 157 | 0.0 | 0.0 | 0.00 | 0.00 | 0.00 | 63 | 1010.3 |
| 20260505002336 | 13 | 157 | 0.0 | 0.0 | 0.00 | 0.00 | 0.00 | 62 | 1010.5 |
| 20260505001835 | 13 | 157 | 0.0 | 0.0 | 0.00 | 0.00 | 0.00 | 60 | 1010.3 |
| 20260505001332 | 15 | 157 | 0.0 | 0.0 | 0.00 | 0.00 | 0.00 | 58 | 1010.5 |
| 20260505000829 | 15 | 157 | 0.0 | 0.0 | 0.00 | 0.00 | 0.00 | 57 | 1010.1 |
| 20260505000327 | 16 | 157 | 0.0 | 0.0 | 0.00 | 0.00 | 0.00 | 54 | 1010.1 |
| 20260504235823 | 17 | 157 | 0.0 | 0.0 | 0.00 | 0.00 | 0.00 | 49 | 1010.1 |
| 20260504235320 | 18 | 157 | 0.0 | 0.0 | 0.00 | 0.00 | 0.00 | 39 | 1009.8 |
| 20260504234817 | 18 | 158 | 0.0 | 0.0 | 0.00 | 0.00 | 0.00 | 36 | 1009.9 |
| 20260504234315 | 19 | 158 | 0.0 | 0.0 | 0.00 | 0.00 | 0.00 | 36 | 1010.0 |
| 20260504233811 | 19 | 157 | 0.0 | 0.0 | 0.00 | 0.00 | 0.00 | 36 | 1009.8 |
| 20260504233306 | 19 | 166 | 0.0 | 1.6 | 0.00 | 0.00 | 0.00 | 35 | 1009.6 |
| 20260504232803 | 20 | 138 | 0.0 | 0.0 | 0.00 | 0.00 | 0.00 | 35 | 1009.4 |
| 20260504232301 | 20 | 165 | 0.0 | 1.6 | 0.00 | 0.00 | 0.00 | 34 | 1009.4 |
| 20260504231757 | 20 | 127 | 0.0 | 1.6 | 0.00 | 0.00 | 0.00 | 33 | 1009.5 |
| 20260504231254 | 20 | 150 | 0.0 | 3.2 | 0.00 | 0.00 | 0.00 | 34 | 1009.3 |
| 20260504230750 | 20 | 171 | 0.0 | 1.6 | 0.00 | 0.00 | 0.00 | 34 | 1009.2 |
| 20260504230248 | 20 | 138 | 1.6 | 3.2 | 0.00 | 0.00 | 0.00 | 35 | 1009.2 |
| 20260504225747 | 20 | 138 | 0.0 | 1.6 | 0.00 | 0.00 | 0.00 | 34 | 1009.1 |
| 20260504225242 | 20 | 166 | 0.0 | 0.0 | 0.00 | 0.00 | 0.00 | 34 | 1009.0 |
| 20260504224740 | 20 | 149 | 0.0 | 0.0 | 0.00 | 0.00 | 0.00 | 34 | 1009.0 |
| 20260504224237 | 20 | 154 | 0.0 | 1.6 | 0.00 | 0.00 | 0.00 | 33 | 1008.9 |
| 20260504223733 | 20 | 114 | 0.0 | 1.6 | 0.00 | 0.00 | 0.00 | 33 | 1008.9 |
| 20260504223229 | 21 | 160 | 0.0 | 4.8 | 0.00 | 0.00 | 0.00 | 33 | 1008.8 |
| 20260504222726 | 21 | 172 | 1.6 | 4.8 | 0.00 | 0.00 | 0.00 | 32 | 1008.7 |
| 20260504222223 | 21 | 182 | 1.6 | 4.8 | 0.00 | 0.00 | 0.00 | 31 | 1008.9 |
| 20260504221720 | 21 | 217 | 4.8 | 6.4 | 0.00 | 0.00 | 0.00 | 32 | 1008.8 |
| 20260504221217 | 21 | 178 | 1.6 | 3.2 | 0.00 | 0.00 | 0.00 | 31 | 1008.7 |
| 20260504220714 | 21 | 192 | 1.6 | 6.4 | 0.00 | 0.00 | 0.00 | 30 | 1008.9 |
| 20260504220212 | 21 | 177 | 3.2 | 4.8 | 0.00 | 0.00 | 0.00 | 30 | 1008.9 |
| 20260504215708 | 21 | 143 | 1.6 | 4.8 | 0.00 | 0.00 | 0.00 | 33 | 1008.8 |
| 20260504215205 | 21 | 160 | 0.0 | 0.0 | 0.00 | 0.00 | 0.00 | 33 | 1008.9 |
| 20260504214700 | 21 | 188 | 3.2 | 3.2 | 0.00 | 0.00 | 0.00 | 32 | 1008.7 |
| 20260504214157 | 21 | 219 | 3.2 | 4.8 | 0.00 | 0.00 | 0.00 | 33 | 1008.7 |
| 20260504213654 | 21 | 187 | 1.6 | 4.8 | 0.00 | 0.00 | 0.00 | 33 | 1008.8 |
| 20260504213151 | 21 | 195 | 1.6 | 3.2 | 0.00 | 0.00 | 0.00 | 32 | 1008.8 |
| 20260504212647 | 21 | 173 | 1.6 | 6.4 | 0.00 | 0.00 | 0.00 | 32 | 1008.6 |
| 20260504212144 | 22 | 131 | 1.6 | 4.8 | 0.00 | 0.00 | 0.00 | 32 | 1008.7 |
| 20260504211641 | 22 | 183 | 3.2 | 6.4 | 0.00 | 0.00 | 0.00 | 32 | 1008.7 |
| 20260504211137 | 22 | 168 | 0.0 | 3.2 | 0.00 | 0.00 | 0.00 | 32 | 1008.7 |
| 20260504210636 | 22 | 169 | 1.6 | 1.6 | 0.00 | 0.00 | 0.00 | 32 | 1008.9 |
| 20260504210131 | 22 | 71 | 1.6 | 3.2 | 0.00 | 0.00 | 0.00 | 31 | 1008.8 |
| 20260504205629 | 22 | 135 | 3.2 | 4.8 | 0.00 | 0.00 | 0.00 | 31 | 1008.8 |
| 20260504205126 | 21 | 143 | 0.0 | 4.8 | 0.00 | 0.00 | 0.00 | 32 | 1008.7 |
| 20260504204625 | 22 | 200 | 4.8 | 4.8 | 0.00 | 0.00 | 0.00 | 32 | 1008.9 |
| 20260504204123 | 22 | 196 | 3.2 | 9.7 | 0.00 | 0.00 | 0.00 | 30 | 1008.6 |
| 20260504203622 | 22 | 180 | 1.6 | 4.8 | 0.00 | 0.00 | 0.00 | 31 | 1008.7 |
| 20260504203120 | 22 | 128 | 1.6 | 3.2 | 0.00 | 0.00 | 0.00 | 32 | 1008.9 |
| 20260504202619 | 22 | 207 | 1.6 | 6.4 | 0.00 | 0.00 | 0.00 | 30 | 1008.7 |
| 20260504202117 | 22 | 90 | 3.2 | 11.3 | 0.00 | 0.00 | 0.00 | 30 | 1008.7 |
| 20260504201613 | 22 | 226 | 3.2 | 4.8 | 0.00 | 0.00 | 0.00 | 31 | 1008.6 |
| 20260504201111 | 22 | 229 | 3.2 | 9.7 | 0.00 | 0.00 | 0.00 | 32 | 1008.7 |
| 20260504200608 | 22 | 241 | 6.4 | 11.3 | 0.00 | 0.00 | 0.00 | 30 | 1008.7 |
| 20260504200104 | 22 | 249 | 4.8 | 4.8 | 0.00 | 0.00 | 0.00 | 30 | 1008.8 |
| 20260504195601 | 23 | 175 | 3.2 | 4.8 | 0.00 | 0.00 | 0.00 | 30 | 1008.7 |
| 20260504195057 | 22 | 151 | 1.6 | 3.2 | 0.00 | 0.00 | 0.00 | 30 | 1008.9 |
| 20260504194554 | 23 | 182 | 8.0 | 11.3 | 0.00 | 0.00 | 0.00 | 30 | 1008.9 |
| 20260504194049 | 22 | 202 | 1.6 | 4.8 | 0.00 | 0.00 | 0.00 | 31 | 1008.8 |
| 20260504193546 | 22 | 166 | 3.2 | 4.8 | 0.00 | 0.00 | 0.00 | 33 | 1008.7 |
| 20260504193045 | 22 | 72 | 3.2 | 9.7 | 0.00 | 0.00 | 0.00 | 31 | 1008.8 |
| 20260504192543 | 22 | 188 | 0.0 | 4.8 | 0.00 | 0.00 | 0.00 | 33 | 1008.9 |
| 20260504192041 | 21 | 137 | 0.0 | 4.8 | 0.00 | 0.00 | 0.00 | 32 | 1008.9 |
| 20260504191538 | 20 | 175 | 1.6 | 4.8 | 0.00 | 0.00 | 0.00 | 33 | 1009.1 |
| 20260504191034 | 20 | 197 | 3.2 | 4.8 | 0.00 | 0.00 | 0.00 | 33 | 1009.0 |
| 20260504190531 | 20 | 218 | 9.7 | 11.3 | 0.00 | 0.00 | 0.00 | 34 | 1008.9 |
| 20260504190026 | 20 | 213 | 3.2 | 9.7 | 0.00 | 0.00 | 0.00 | 33 | 1009.0 |
| 20260504185524 | 20 | 132 | 1.6 | 1.6 | 0.00 | 0.00 | 0.00 | 33 | 1009.3 |
| 20260504185020 | 20 | 172 | 3.2 | 4.8 | 0.00 | 0.00 | 0.00 | 34 | 1009.2 |
| 20260504184515 | 20 | 136 | 1.6 | 3.2 | 0.00 | 0.00 | 0.00 | 34 | 1009.3 |
| 20260504184011 | 20 | 204 | 3.2 | 3.2 | 0.00 | 0.00 | 0.00 | 33 | 1009.2 |
| 20260504183509 | 20 | 132 | 0.0 | 3.2 | 0.00 | 0.00 | 0.00 | 33 | 1009.1 |
| 20260504183007 | 20 | 72 | 4.8 | 6.4 | 0.00 | 0.00 | 0.00 | 32 | 1009.2 |
| 20260504182503 | 20 | 129 | 0.0 | 4.8 | 0.00 | 0.00 | 0.00 | 32 | 1009.1 |
| 20260504182000 | 20 | 212 | 3.2 | 6.4 | 0.00 | 0.00 | 0.00 | 32 | 1009.0 |
| 20260504181457 | 20 | 121 | 1.6 | 4.8 | 0.00 | 0.00 | 0.00 | 32 | 1009.0 |
| 20260504180956 | 20 | 128 | 1.6 | 14.5 | 0.00 | 0.00 | 0.00 | 32 | 1009.0 |
| 20260504180455 | 20 | 184 | 4.8 | 12.9 | 0.00 | 0.00 | 0.00 | 33 | 1009.0 |
| 20260504175953 | 20 | 176 | 1.6 | 11.3 | 0.00 | 0.00 | 0.00 | 31 | 1009.0 |
| 20260504175449 | 20 | 223 | 4.8 | 6.4 | 0.00 | 0.00 | 0.00 | 32 | 1009.1 |
| 20260504174947 | 20 | 216 | 3.2 | 4.8 | 0.00 | 0.00 | 0.00 | 31 | 1009.1 |
| 20260504174444 | 21 | 112 | 1.6 | 11.3 | 0.00 | 0.00 | 0.00 | 31 | 1009.1 |
| 20260504173942 | 21 | 194 | 3.2 | 9.7 | 0.00 | 0.00 | 0.00 | 30 | 1009.0 |
| 20260504173437 | 22 | 239 | 6.4 | 9.7 | 0.00 | 0.00 | 0.00 | 29 | 1008.8 |
| 20260504172936 | 22 | 230 | 6.4 | 9.7 | 0.00 | 0.00 | 0.00 | 28 | 1009.1 |
| 20260504172431 | 22 | 228 | 6.4 | 17.7 | 0.00 | 0.00 | 0.00 | 29 | 1009.0 |
| 20260504171928 | 22 | 241 | 6.4 | 9.7 | 0.00 | 0.00 | 0.00 | 29 | 1008.9 |
| 20260504171425 | 21 | 212 | 9.7 | 14.5 | 0.00 | 0.00 | 0.00 | 29 | 1008.9 |
| 20260504170922 | 22 | 217 | 3.2 | 9.7 | 0.00 | 0.00 | 0.00 | 30 | 1008.9 |
| 20260504170418 | 22 | 105 | 3.2 | 14.5 | 0.00 | 0.00 | 0.00 | 30 | 1009.0 |
| 20260504160337 | 21 | 193 | 6.4 | 9.7 | 0.00 | 0.00 | 0.00 | 34 | 1009.3 |
| 20260504150802 | 17 | 195 | 4.8 | 9.7 | 0.00 | 0.00 | 0.00 | 40 | 1010.3 |
| 20260504150259 | 18 | 215 | 11.3 | 12.9 | 0.00 | 0.00 | 0.00 | 39 | 1010.5 |
| 20260504141229 | 16 | 140 | 3.2 | 9.7 | 0.00 | 0.00 | 0.00 | 43 | 1011.1 |
| 20260504140725 | 16 | 227 | 3.2 | 6.4 | 0.00 | 0.00 | 0.00 | 41 | 1011.4 |
| 20260504140220 | 16 | 170 | 1.6 | 4.8 | 0.00 | 0.00 | 0.00 | 42 | 1011.5 |
| 20260504130649 | 13 | 206 | 3.2 | 4.8 | 0.00 | 0.00 | 0.00 | 51 | 1012.1 |
| 20260504130145 | 13 | 215 | 4.8 | 4.8 | 0.00 | 0.00 | 0.00 | 51 | 1011.9 |
| 20260504120110 | 10 | 120 | 0.0 | 3.2 | 0.00 | 0.00 | 0.00 | 59 | 1013.0 |
| 20260504110537 | 8 | 186 | 3.2 | 3.2 | 0.00 | 0.00 | 0.00 | 56 | 1012.9 |
| 20260504100459 | 6 | 188 | 1.6 | 1.6 | 0.00 | 0.00 | 0.00 | 63 | 1012.8 |
| 20260504081857 | 5 | 181 | 0.0 | 1.6 | 0.00 | 0.00 | 0.00 | 62 | 1012.6 |
| 20260504081354 | 5 | 181 | 0.0 | 0.0 | 0.00 | 0.00 | 0.00 | 63 | 1012.8 |
| 20260504080850 | 5 | 181 | 0.0 | 1.6 | 0.00 | 0.00 | 0.00 | 63 | 1012.7 |
| 20260504080347 | 5 | 181 | 0.0 | 1.6 | 0.00 | 0.00 | 0.00 | 63 | 1012.7 |
| 20260504070315 | 5 | 180 | 1.6 | 1.6 | 0.00 | 0.00 | 0.00 | 64 | 1012.6 |
| 20260504060235 | 3 | 175 | 0.0 | 0.0 | 0.00 | 0.00 | 0.00 | 67 | 1012.5 |
| 20260504050703 | 5 | 175 | 0.0 | 0.0 | 0.00 | 0.00 | 0.00 | 64 | 1012.5 |
| 20260504050200 | 5 | 175 | 0.0 | 0.0 | 0.00 | 0.00 | 0.00 | 64 | 1012.5 |
| 20260504045658 | 5 | 175 | 0.0 | 0.0 | 0.00 | 0.00 | 0.00 | 64 | 1012.6 |
| 20260504045157 | 5 | 175 | 0.0 | 0.0 | 0.00 | 0.00 | 0.00 | 64 | 1012.4 |
| 20260504044655 | 5 | 175 | 0.0 | 0.0 | 0.00 | 0.00 | 0.00 | 64 | 1012.4 |
| 20260504044152 | 5 | 175 | 0.0 | 0.0 | 0.00 | 0.00 | 0.00 | 64 | 1012.5 |
| 20260504043649 | 5 | 175 | 0.0 | 0.0 | 0.00 | 0.00 | 0.00 | 64 | 1012.2 |
| 20260504043146 | 5 | 175 | 0.0 | 0.0 | 0.00 | 0.00 | 0.00 | 64 | 1012.3 |
| 20260504042644 | 5 | 175 | 0.0 | 0.0 | 0.00 | 0.00 | 0.00 | 65 | 1012.3 |
| 20260504042140 | 5 | 178 | 0.0 | 0.0 | 0.00 | 0.00 | 0.00 | 65 | 1012.3 |
| 20260504041636 | 5 | 174 | 0.0 | 0.0 | 0.00 | 0.00 | 0.00 | 66 | 1012.2 |
| 20260504041132 | 5 | 174 | 0.0 | 0.0 | 0.00 | 0.00 | 0.00 | 65 | 1012.3 |
| 20260504040630 | 4 | 174 | 0.0 | 0.0 | 0.00 | 0.00 | 0.00 | 65 | 1012.1 |
| 20260504040127 | 4 | 173 | 0.0 | 0.0 | 0.00 | 0.00 | 0.00 | 65 | 1012.2 |
| 20260504035623 | 4 | 173 | 0.0 | 0.0 | 0.00 | 0.00 | 0.00 | 65 | 1012.2 |
| 20260504035120 | 4 | 173 | 0.0 | 0.0 | 0.00 | 0.00 | 0.00 | 65 | 1012.0 |
| 20260504034618 | 4 | 173 | 0.0 | 0.0 | 0.00 | 0.00 | 0.00 | 65 | 1012.0 |
| 20260504034114 | 5 | 173 | 0.0 | 0.0 | 0.00 | 0.00 | 0.00 | 65 | 1012.1 |
| 20260504033612 | 5 | 173 | 0.0 | 0.0 | 0.00 | 0.00 | 0.00 | 64 | 1012.1 |
| 20260504033109 | 5 | 173 | 0.0 | 0.0 | 0.00 | 0.00 | 0.00 | 63 | 1012.1 |
| 20260504032606 | 5 | 173 | 0.0 | 0.0 | 0.00 | 0.00 | 0.00 | 62 | 1011.8 |
| 20260504032103 | 5 | 173 | 0.0 | 0.0 | 0.00 | 0.00 | 0.00 | 61 | 1012.0 |
| 20260504031600 | 5 | 173 | 0.0 | 0.0 | 0.00 | 0.00 | 0.00 | 62 | 1011.9 |
| 20260504031056 | 5 | 173 | 0.0 | 0.0 | 0.00 | 0.00 | 0.00 | 62 | 1012.0 |
| 20260504030553 | 5 | 173 | 0.0 | 0.0 | 0.00 | 0.00 | 0.00 | 62 | 1012.1 |
| 20260504030049 | 5 | 173 | 0.0 | 0.0 | 0.00 | 0.00 | 0.00 | 62 | 1012.2 |
| 20260504025547 | 5 | 173 | 0.0 | 0.0 | 0.00 | 0.00 | 0.00 | 61 | 1011.9 |
| 20260504025044 | 5 | 173 | 0.0 | 0.0 | 0.00 | 0.00 | 0.00 | 61 | 1012.1 |
| 20260504024541 | 5 | 173 | 0.0 | 0.0 | 0.00 | 0.00 | 0.00 | 61 | 1012.0 |
| 20260504024038 | 5 | 173 | 0.0 | 0.0 | 0.00 | 0.00 | 0.00 | 61 | 1011.9 |
| 20260504023534 | 5 | 173 | 0.0 | 0.0 | 0.00 | 0.00 | 0.00 | 61 | 1011.8 |
| 20260504023030 | 5 | 172 | 0.0 | 0.0 | 0.00 | 0.00 | 0.00 | 61 | 1011.7 |
| 20260504022526 | 5 | 171 | 0.0 | 0.0 | 0.00 | 0.00 | 0.00 | 60 | 1011.8 |
| 20260504022023 | 6 | 171 | 0.0 | 0.0 | 0.00 | 0.00 | 0.00 | 60 | 1011.8 |
| 20260504021520 | 5 | 170 | 0.0 | 0.0 | 0.00 | 0.00 | 0.00 | 60 | 1011.8 |
| 20260504021017 | 6 | 170 | 0.0 | 0.0 | 0.00 | 0.00 | 0.00 | 60 | 1011.9 |
| 20260504020514 | 6 | 170 | 0.0 | 0.0 | 0.00 | 0.00 | 0.00 | 60 | 1011.8 |
| 20260504020011 | 6 | 170 | 0.0 | 0.0 | 0.00 | 0.00 | 0.00 | 59 | 1011.9 |
| 20260504015507 | 6 | 170 | 0.0 | 0.0 | 0.00 | 0.00 | 0.00 | 59 | 1011.8 |
| 20260504015003 | 6 | 170 | 0.0 | 0.0 | 0.00 | 0.00 | 0.00 | 59 | 1011.8 |
| 20260504014459 | 6 | 170 | 0.0 | 0.0 | 0.00 | 0.00 | 0.00 | 59 | 1011.7 |
| 20260504013956 | 6 | 170 | 0.0 | 0.0 | 0.00 | 0.00 | 0.00 | 58 | 1011.9 |
| 20260504013454 | 6 | 170 | 0.0 | 0.0 | 0.00 | 0.00 | 0.00 | 58 | 1011.9 |
| 20260504012950 | 6 | 170 | 0.0 | 0.0 | 0.00 | 0.00 | 0.00 | 58 | 1011.9 |
| 20260504012448 | 6 | 170 | 0.0 | 0.0 | 0.00 | 0.00 | 0.00 | 57 | 1011.6 |